weather station
Area: 11014 km2
The highest point: Tok (865 m.s.l.)
Total stations: 61
Stations online: 56
Stations offline: 5
Current weather
-5°C

Meteorological map - weather stations in Středočeský

. The meteorological maps show weather information from WARIO weather stations

Weather stations Středočeský

 UpdatesNameStatusTemperatureHumidityWind speedWind direction
28.1.2023 22:15Barochov-5.2 °C82.1 %1.2 m/s NW
28.1.2023 22:14Beroun-4.9 °C81.1 %0.7 m/s W
28.1.2023 22:14Beroun-4.6 °C82.9 %1.0 m/s S
28.1.2023 22:15Bořanovice-4.5 °C85.1 %1.5 m/s W
28.1.2023 22:14Jílové u Prahy - Borek-4.6 °C85.7 %1.2 m/s NE
28.1.2023 22:15Břešťany-4.4 °C82.7 %1.5 m/s N
28.1.2023 22:15Brandýs nad Labem-3.3 °C82.2 %0.8 m/s E
28.1.2023 22:15Budiměřice-3.6 °C73.4 %0.8 m/s W
27.1.2023 10:59Rakovník-2.1 °C98.7 %0.0 m/s NW
28.1.2023 22:15Králův Dvůr-4.9 °C83.8 %1.3 m/s N
28.1.2023 22:15Černošice-3.8 °C71.5 %0.7 m/s NW
28.1.2023 22:14Chotětov-3.0 °C82.4 %0.6 m/s S
28.1.2023 22:15Přítoky-4.9 °C75.3 %2.2 m/s S
28.1.2023 22:15Dobřejovice-5.1 °C77.1 %2.4 m/s NW
28.1.2023 22:14Dolní Břežany-5.4 °C80.4 %1.9 m/s S
28.1.2023 22:15Dolní Břežany-4.8 °C73.3 %2.5 m/s NW
28.1.2023 22:15Hostín u Vojkovic-3.4 °C86.3 %2.1 m/s NW
28.1.2023 22:15Hovorčovice-3.8 °C100.0 %0.0 m/s S
28.1.2023 22:14Sedlčany-5.1 °C94.7 %0.0 m/s NW
28.1.2023 22:15Žebrák-5.1 °C69.5 %2.1 m/s NW
28.1.2023 22:15Jiřetice-5.9 °C87.9 %1.1 m/s NE
28.1.2023 22:15Kojetice-3.3 °C81.1 %1.8 m/s NW
28.1.2023 22:15Kostelec nad Černými lesy-6.0 °C86.1 %2.3 m/s SW
25.1.2023 08:40Kostelec nad Černými lesy-0.9 °C90.5 %0.0 m/s SE
28.1.2023 22:14Krásná Hora nad Vltavou-5.8 °C96.2 %0.7 m/s N
28.1.2023 22:15Květnice-4.5 °C88.6 %1.5 m/s E
28.1.2023 18:11Krušovice-5.1 °C86.2 %1.1 m/s SE
28.1.2023 22:15Zdice-3.9 °C81.9 %1.5 m/s N
28.1.2023 22:14Zeleneč-4.5 °C91.4 %1.5 m/s N
28.1.2023 22:15Vestec-5.0 °C71.4 %1.2 m/s N
28.1.2023 22:15Jince-5.6 °C75.1 %2.2 m/s N
28.1.2023 22:14Dolní Jirčany-5.7 °C84.4 %1.6 m/s E
28.1.2023 22:14Cetyně-6.6 °C87.2 %1.6 m/s N
28.1.2023 22:15Nová Ves-3.7 °C66.4 %2.6 m/s S
28.1.2023 22:15Olešná-6.7 °C97.0 %0.0 m/s N
28.1.2023 22:14Srby-5.4 °C82.3 %1.3 m/s W
28.1.2023 22:14Kralupy nad Vltavou-2.8 °C75.7 %0.0 m/s N
28.1.2023 22:14Mrač-4.4 °C73.2 %0.8 m/s NW
28.1.2023 22:14Mladá Boleslav-3.8 °C97.8 %0.0 m/s SE
28.1.2023 22:15Obříství-3.4 °C70.8 %1.6 m/s N
23.1.2023 14:08Milín-2.1 °C96.4 %2.3 m/s E
28.1.2023 22:14Mnichovice-5.9 °C83.9 %1.0 m/s N
28.1.2023 22:14Mnichovice-5.2 °C75.7 %1.6 m/s NW
28.1.2023 22:15Hořovice-5.5 °C84.5 %1.6 m/s N
28.1.2023 22:14Ostrá-3.7 °C80.0 %2.0 m/s SE
28.1.2023 22:15Petrovice-5.8 °C97.4 %1.5 m/s N
28.1.2023 22:14Plaňany-3.9 °C68.5 %1.5 m/s NW
28.1.2023 22:14Suchodol-6.0 °C98.0 %1.6 m/s N
28.1.2023 22:14Říčany-5.6 °C85.5 %1.5 m/s SE
28.1.2023 22:14Slaný-5.0 °C100.0 %0.0 m/s W
28.1.2023 22:14Višňová-6.3 °C86.3 %0.0 m/s N
28.1.2023 22:15Toušice-4.3 °C80.0 %0.0 m/s NE
28.1.2023 22:14Unhošť-5.5 °C78.5 %0.7 m/s E
18.12.2022 04:06Vrbčany °C %0.0 m/s NE
28.1.2023 22:15Všešímy-6.0 °C85.7 %1.4 m/s NE
28.1.2023 22:15Všetaty-3.3 °C72.3 %3.0 m/s NW
28.1.2023 22:15Zaječice-5.6 °C77.5 %0.7 m/s N
28.1.2023 22:14Zápy-3.7 °C71.0 %1.7 m/s N
28.1.2023 22:15Zdice-4.6 °C83.4 %0.8 m/s SW
28.1.2023 22:15Zibohlavy-4.3 °C71.7 %0.0 m/s NW
28.1.2023 22:15Divišov-6.8 °C98.5 %2.1 m/s SW
Email notifications
Enter your email address to subscribe to notifications about news at warioweather.com. Your email address will not be used for any purpose other than sending these emails and will not be provided to any third party. The subscription can be ended at any time.
All data are only indicative. The portal administrator has no responsibility for potentially incorrect data and related consequences. Publishing or further sharing of content from www.warioweather.com is only allowed with written consent from WANET s.r.o.